Regional Weather Roundup
Issued by NWS Kansas City/Pleasant Hill, MO

Home | Current Version | Previous Version | Graphics & Text | Print | Product List | Glossary Off
Versions: 1 2 3 4 5 6 7 8 9 10 11 12 13 14 15 16 17 18 19 20 21 22 23 24 25 26 27 28 29 30 31 32 33 34 35 36 37 38 39 40 41 42 43 44 45 46 47 48 49 50

000
ASUS43 KEAX 312104
RWREAX

WEATHER ROUNDUP FOR EASTERN KANSAS AND NORTHWEST MISSOURI
NATIONAL WEATHER SERVICE KANSAS CITY/PLEASANT HILL MO
400 PM CDT FRI OCT 31 2014

KSZ040-057-103>105-MOZ028-029-037-043-312200-
...KANSAS CITY METROPOLITAN AREA...

CITY           SKY/WX    TMP DP  RH WIND       PRES   REMARKS
K.C. INTL      SUNNY     46  21  37 N10       30.45F
K.C. DOWNTOWN  SUNNY     47  17  30 N9G20     30.45F
LEES SUMMIT    SUNNY     45  18  34 N13       30.44F
OLATHE - IXD   LGT RAIN  45  17  32 N16       30.45F
OLATHE - OJC   SUNNY     46  15  28 MISG      30.43F
LAWRENCE       SUNNY     47  18  31 N12       30.46F

$$

MOZ001>008-011>017-020>025-030>033-038>040-044>046-053-054-312200-
...NORTHERN AND CENTRAL MISSOURI...

CITY           SKY/WX    TMP DP  RH WIND       PRES   REMARKS
ST. JOSEPH     SUNNY     47  17  30 N9G23     30.47F
MOSBY          CLEAR     45  14  29 N14G22    30.45R
WHITEMAN AFB   SUNNY     45  17  31 N16       30.41S
CLINTON        SUNNY     46  19  34 N15       30.42S
SEDALIA        SUNNY     47  17  30 NW16      30.41S
WARSAW         NOT AVBL
MARSHALL       SUNNY     48  19  32 N13G20    30.42S
CHILLICOTHE      N/A     47  18  31 N9G20     30.44F
MOBERLY        SUNNY     46  16  29 N13       30.39F
KIRKSVILLE     SUNNY     44  21  40 N14G24    30.40S

$$

MOZ041-047>049-056>058-063>065-088>090-097-312200-
...EASTERN AND SOUTHERN MISSOURI...

CITY           SKY/WX    TMP DP  RH WIND       PRES   REMARKS
ST. LOUIS INTL MOSUNNY   47  21  35 NW24      30.29S
SPIRIT OF STL  MOSUNNY   46  21  37 N20G30    30.31R
COLUMBIA       SUNNY     46  18  32 N14       30.35F
JEFFERSON CITY SUNNY     47  13  25 N15G21    30.36F
MEXICO         SUNNY     46  25  42 NW20G26   30.35F
ROLLA          SUNNY     44  20  38 N18G25    30.31S
LEBANON        SUNNY     46  18  31 N15G25    30.34S
OSAGE BEACH    SUNNY     46  19  34 N5G23     30.36S
SPRINGFIELD    SUNNY     47  19  33 N14G24    30.34S
BRANSON        SUNNY     50  19  29 NW14G31   30.32R
JOPLIN         SUNNY     48  23  37 N17G25    30.40S
WEST PLAINS    SUNNY     49  18  29 N15G28    30.29R

$$

IAZ060-094-KSZ022-034>040-054-083-096-NEZ052-066-093-312200-
...KANSAS...SOUTHEAST NEBRASKA AND IOWA...

CITY           SKY/WX    TMP DP  RH WIND       PRES   REMARKS
TOPEKA         SUNNY     47  19  33 N9G22     30.47F
MANHATTAN      SUNNY     48  17  29 NE10      30.47F
EMPORIA        SUNNY     47  15  27 NE12      30.44F
CHANUTE        SUNNY     48  18  30 N16G23    30.42S
WICHITA        MOSUNNY   51  14  22 NE12      30.43F
OMAHA          MOSUNNY   44  16  32 N8        30.50F
LINCOLN        SUNNY     45  16  31 N6        30.51F
FALLS CITY     SUNNY     46  16  30 N9        30.47F
LAMONI         SUNNY     42  19  39 N13G22    30.43F
DES MOINES     SUNNY     43  18  36 N13       30.45F

$$




USA.gov is the U.S. government's official web portal to all federal, state and local government web resources and services.